{"data":{"norad_id":59847,"intl_designator":"2024-097N","name":"STARLINK-31889","alt_names":[],"object_type":"PAYLOAD","status":"ACTIVE","operator":null,"country":"US","launch_date":"2024-05-23","launch_site_code":"AFETR","launch_vehicle":null,"mission":null,"orbit_class":"UNKNOWN","rcs_meters":null,"size_class":null,"mass_kg":null,"dimensions":null,"purposes":["comms"],"wikipedia_slug":null,"has_3d_model":false,"image_url":null,"decayed_at":null,"tle_current":{"epoch":"2026-05-25T04:52:40.609056Z","epoch_age_seconds":64757,"freshness":"FRESH","line1":"1 59847U 24097N   26145.20324779 -.00000360  00000+0 -35549-5 0  9998","line2":"2 59847  43.0017 202.6754 0000943 279.8290  80.2455 15.27574788113619","mean_motion":15.27574788,"eccentricity":9.43e-5,"inclination_deg":43.0017,"raan_deg":202.6754,"arg_perigee_deg":279.829,"mean_anomaly_deg":80.2455,"bstar":-3.5549e-6,"rev_number":11361,"period_min":94.267070346542,"perigee_km":482.41769136647,"apogee_km":483.7117140076,"semimajor_km":6861.201702687,"source":"CELESTRAK","updated_at":"2026-05-25T13:38:19.087696Z"}}}